CW3782 Weather Reports


time (UTC)temp
F
wind
direction
speed
knots
gust
knots
rain 1hr
in
rain 24hr
in
rain mn
in
humidity
%
barometer
mb
20260505111704 52 187 0.0 0.0 0.00 0.00 0.00 83 1014.9
20260505111602 52 60 0.0 0.9 0.00 0.00 0.00 93 1016.6
20260505111204 52 187 0.0 0.0 0.00 0.00 0.00 82 1014.8
20260505111058 51 104 0.0 0.9 0.00 0.00 0.00 93 1016.5
20260505110705 52 187 0.0 0.0 0.00 0.00 0.00 81 1014.7
20260505110555 51 89 0.0 0.9 0.00 0.00 0.00 93 1016.5
20260505110204 52 187 0.0 0.0 0.00 0.00 0.00 81 1014.7
20260505102205 53 187 0.0 0.0 0.00 0.00 0.00 80 1014.2
20260505102027 52 25 0.0 0.9 0.00 0.00 0.00 91 1016.0
20260505101526 52 12 0.0 0.9 0.00 0.00 0.00 91 1016.0
20260505101205 53 187 0.0 0.0 0.00 0.00 0.00 79 1014.2
20260505101022 52 7 0.0 1.7 0.00 0.00 0.00 90 1015.8
20260505100704 53 187 0.0 0.9 0.00 0.00 0.00 79 1014.2
20260505100519 53 64 0.0 1.7 0.00 0.00 0.00 89 1015.8
20260505100016 53 99 0.0 1.7 0.00 0.00 0.00 89 1015.9
20260505095705 53 187 0.0 0.0 0.00 0.00 0.00 79 1014.1
20260505095512 53 22 0.0 0.9 0.00 0.00 0.00 89 1015.6
20260505095204 53 187 0.0 0.0 0.00 0.00 0.00 79 1014.1
20260505095008 53 87 0.0 1.7 0.00 0.00 0.00 89 1015.8
20260505094704 54 187 0.0 0.9 0.00 0.00 0.00 79 1014.1
20260505094505 53 111 0.9 1.7 0.00 0.00 0.00 88 1015.8
20260505094204 54 187 0.0 0.9 0.00 0.00 0.00 78 1014.1
20260505094001 53 44 0.0 1.7 0.00 0.00 0.00 88 1015.6
20260505093458 53 89 0.0 1.7 0.00 0.00 0.00 88 1015.6
20260505092955 53 142 0.0 1.7 0.00 0.00 0.00 88 1015.8
20260505092705 54 187 0.0 0.0 0.00 0.00 0.00 77 1014.1
20260505092452 53 71 0.9 1.7 0.00 0.00 0.00 88 1015.7
20260505091950 53 94 0.0 0.9 0.00 0.00 0.00 87 1015.5
20260505091447 53 78 0.9 1.7 0.00 0.00 0.00 87 1015.7
20260505091204 55 187 0.0 0.0 0.00 0.00 0.00 76 1014.0
20260505090945 54 117 0.0 1.7 0.00 0.00 0.00 86 1015.7
20260505090443 54 67 0.0 0.9 0.00 0.00 0.00 86 1015.5
20260505090204 55 187 0.0 0.0 0.00 0.00 0.00 75 1013.9
20260505085940 54 50 0.0 0.0 0.00 0.00 0.00 85 1015.7
20260505085704 55 187 0.0 0.0 0.00 0.00 0.00 75 1013.9
20260505085438 54 61 0.0 1.7 0.00 0.00 0.00 85 1015.5
20260505085204 55 187 0.0 0.0 0.00 0.00 0.00 75 1013.7
20260505084936 54 118 0.0 0.9 0.00 0.00 0.00 85 1015.4
20260505084704 56 187 0.0 0.0 0.00 0.00 0.00 75 1013.7
20260505084434 54 117 0.0 1.7 0.00 0.00 0.00 84 1015.5
20260505084204 56 187 0.0 0.0 0.00 0.00 0.00 75 1013.7
20260505083932 55 89 0.0 0.9 0.00 0.00 0.00 84 1015.5
20260505083429 55 116 0.0 1.7 0.00 0.00 0.00 84 1015.5
20260505083205 56 187 0.0 0.0 0.00 0.00 0.00 74 1013.7
20260505082925 55 75 0.0 0.0 0.00 0.00 0.00 83 1015.6
20260505082421 55 93 0.0 1.7 0.00 0.00 0.00 83 1015.6
20260505081918 55 86 0.9 1.7 0.00 0.00 0.00 82 1015.4
20260505081705 57 187 0.0 0.0 0.00 0.00 0.00 73 1013.7
20260505081415 55 88 0.9 1.7 0.00 0.00 0.00 82 1015.3
20260505081204 57 187 0.0 0.0 0.00 0.00 0.00 73 1013.7
20260505080911 56 117 0.0 0.9 0.00 0.00 0.00 82 1015.3
20260505080408 56 62 0.9 1.7 0.00 0.00 0.00 81 1015.3
20260505075903 56 107 0.0 1.7 0.00 0.00 0.00 81 1015.2
20260505075704 57 187 0.0 0.0 0.00 0.00 0.00 72 1013.6
20260505075400 56 154 0.0 1.7 0.00 0.00 0.00 81 1015.3
20260505075204 58 187 0.0 0.0 0.00 0.00 0.00 72 1013.6
20260505074858 56 73 0.9 1.7 0.00 0.00 0.00 81 1015.2
20260505074704 58 187 0.0 0.0 0.00 0.00 0.00 71 1013.6
20260505074354 57 39 0.0 1.7 0.00 0.00 0.00 80 1015.3
20260505073852 57 230 0.0 0.9 0.00 0.00 0.00 80 1015.1
20260505073704 58 187 0.0 0.9 0.00 0.00 0.00 71 1013.5
20260505073349 57 145 0.0 1.7 0.00 0.00 0.00 80 1015.1
20260505073204 58 187 0.0 0.0 0.00 0.00 0.00 70 1013.5
20260505072846 57 89 0.0 1.7 0.00 0.00 0.00 79 1015.1
20260505072342 57 140 0.9 1.7 0.00 0.00 0.00 79 1015.0
20260505071839 58 66 0.0 1.7 0.00 0.00 0.00 78 1015.3
20260505071704 59 187 0.0 0.0 0.00 0.00 0.00 69 1013.5
20260505071335 58 89 0.0 0.9 0.00 0.00 0.00 77 1015.1
20260505070833 58 124 0.0 0.9 0.00 0.00 0.00 76 1015.0
20260505070704 59 187 0.0 0.0 0.00 0.00 0.00 69 1013.4
20260505070330 58 129 0.0 0.9 0.00 0.00 0.00 76 1015.2
20260505065825 59 126 0.0 1.7 0.00 0.00 0.00 76 1015.0
20260505065322 59 135 0.0 0.9 0.00 0.00 0.00 75 1015.1
20260505064819 59 181 0.9 1.7 0.00 0.00 0.00 75 1015.0
20260505064316 59 70 0.0 0.9 0.00 0.00 0.00 74 1015.3
20260505063814 59 57 0.0 0.9 0.00 0.00 0.00 74 1015.1
20260505063310 60 55 0.0 1.7 0.00 0.00 0.00 74 1015.1
20260505063204 60 156 0.0 0.9 0.00 0.00 0.00 67 1013.3
20260505062806 60 352 0.0 1.7 0.00 0.00 0.00 73 1015.1
20260505062304 60 143 0.0 1.7 0.00 0.00 0.00 71 1014.9
20260505062205 61 198 0.9 1.7 0.00 0.00 0.00 67 1013.3
20260505061801 60 65 0.9 1.7 0.00 0.00 0.00 72 1015.0
20260505061259 61 42 0.0 0.9 0.00 0.00 0.00 72 1014.9
20260505060756 61 135 0.0 0.9 0.00 0.00 0.00 70 1015.1
20260505060253 61 142 0.0 0.9 0.00 0.00 0.00 70 1014.9
20260505055748 61 66 0.0 0.9 0.00 0.00 0.00 70 1015.2
20260505055704 61 127 0.9 1.7 0.00 0.00 0.00 66 1013.4
20260505055245 61 89 0.0 1.7 0.00 0.00 0.00 69 1015.1
20260505054742 61 104 0.0 1.7 0.00 0.00 0.00 69 1015.1
20260505054239 62 140 0.0 4.3 0.00 0.00 0.00 68 1015.2
20260505053738 62 132 1.7 3.5 0.00 0.00 0.00 68 1015.2
20260505053704 62 155 0.9 2.6 0.00 0.00 0.00 66 1013.5
20260505053234 62 155 0.0 2.6 0.00 0.00 0.00 68 1015.2
20260505053204 62 175 0.9 1.7 0.00 0.00 0.00 65 1013.6
20260505052731 62 148 1.7 3.5 0.00 0.00 0.00 68 1015.1
20260505052228 62 182 0.0 1.7 0.00 0.00 0.00 69 1015.1
20260505051725 62 126 0.0 2.6 0.00 0.00 0.00 68 1015.3
20260505051704 62 186 0.9 2.6 0.00 0.00 0.00 65 1013.7
20260505051223 62 132 0.0 2.6 0.00 0.00 0.00 68 1015.4
20260505051204 62 162 0.9 4.3 0.00 0.00 0.00 65 1013.7
20260505050721 62 84 0.9 1.7 0.00 0.00 0.00 68 1015.5
20260505050219 62 103 0.0 1.7 0.00 0.00 0.00 68 1015.5
20260505050204 63 18 0.9 5.2 0.00 0.00 0.00 65 1013.7
20260505041705 64 137 1.7 2.6 0.00 0.00 0.00 63 1013.7
20260505041648 63 119 0.0 1.7 0.00 0.00 0.00 66 1015.1
20260505041204 64 105 0.9 2.6 0.00 0.00 0.00 63 1013.7
20260505041146 64 127 0.9 3.5 0.00 0.00 0.00 66 1015.2
20260505040704 64 181 0.9 2.6 0.00 0.00 0.00 63 1013.7
20260505040643 64 149 0.0 1.7 0.00 0.00 0.00 66 1015.3
20260505040140 64 176 0.0 2.6 0.00 0.00 0.00 66 1015.1
20260505035636 64 324 0.0 2.6 0.00 0.00 0.00 65 1015.4
20260505035204 64 151 0.9 5.2 0.00 0.00 0.00 62 1013.7
20260505035132 64 150 1.7 1.7 0.00 0.00 0.00 65 1015.3
20260505034629 64 102 0.0 4.3 0.00 0.00 0.00 65 1015.2
20260505034126 64 116 0.0 3.5 0.00 0.00 0.00 65 1015.2
20260505033705 65 50 0.9 2.6 0.00 0.00 0.00 61 1013.7
20260505033623 64 181 0.9 1.7 0.00 0.00 0.00 64 1015.2
20260505033121 65 69 0.0 2.6 0.00 0.00 0.00 64 1015.0
20260505032706 65 114 0.9 5.2 0.00 0.00 0.00 61 1013.6
20260505032619 65 112 1.7 2.6 0.00 0.00 0.00 64 1015.3
20260505032115 65 120 0.9 2.6 0.00 0.00 0.00 65 1015.2
20260505031613 65 106 0.0 0.9 0.00 0.00 0.00 65 1015.1
20260505031206 66 115 0.9 2.6 0.00 0.00 0.00 61 1013.7
20260505031108 65 124 0.0 2.6 0.00 0.00 0.00 64 1015.3
20260505030706 66 114 0.9 4.3 0.00 0.00 0.00 60 1013.7
20260505030606 65 84 0.9 1.7 0.00 0.00 0.00 64 1015.2
20260505025557 66 127 0.0 2.6 0.00 0.00 0.00 63 1015.2
20260505025057 66 115 0.9 2.6 0.00 0.00 0.00 63 1015.2
20260505024705 67 170 0.9 4.3 0.00 0.00 0.00 59 1013.7
20260505024553 66 155 0.9 3.5 0.00 0.00 0.00 62 1015.1
20260505024050 66 146 1.7 2.6 0.00 0.00 0.00 62 1015.3
20260505023547 67 266 0.0 2.6 0.00 0.00 0.00 62 1015.0
20260505023205 67 127 1.7 6.1 0.00 0.00 0.00 59 1013.7
20260505023045 67 119 0.0 2.6 0.00 0.00 0.00 62 1015.2
20260505022542 67 153 0.9 3.5 0.00 0.00 0.00 62 1015.0
20260505022039 67 150 1.7 5.2 0.00 0.00 0.00 62 1014.9
20260505021705 68 142 0.9 2.6 0.00 0.00 0.00 58 1013.6
20260505021536 67 147 1.7 2.6 0.00 0.00 0.00 62 1015.1
20260505021032 67 130 1.7 3.5 0.00 0.00 0.00 61 1015.0
20260505020705 68 168 0.9 7.0 0.00 0.00 0.00 58 1013.6
20260505020526 68 96 0.9 2.6 0.00 0.00 0.00 61 1014.9
20260505020024 68 108 0.9 4.3 0.00 0.00 0.00 60 1014.8
20260505015521 68 42 0.9 3.5 0.00 0.00 0.00 59 1014.9
20260505015205 69 191 0.9 2.6 0.00 0.00 0.00 56 1013.4
20260505015018 68 121 0.9 2.6 0.00 0.00 0.00 58 1014.8
20260505014515 68 107 0.9 2.6 0.00 0.00 0.00 57 1014.7
20260505014205 69 115 1.7 4.3 0.00 0.00 0.00 54 1013.2
20260505014012 69 117 0.0 2.6 0.00 0.00 0.00 56 1014.8
20260505013706 69 171 1.7 4.3 0.00 0.00 0.00 53 1013.2
20260505013509 69 148 0.0 4.3 0.00 0.00 0.00 54 1014.5
20260505013205 69 90 0.9 4.3 0.00 0.00 0.00 52 1013.2
20260505013006 69 123 1.7 5.2 0.00 0.00 0.00 52 1014.4
20260505012705 69 116 1.7 5.2 0.00 0.00 0.00 50 1013.1
20260505012505 69 89 0.0 2.6 0.00 0.00 0.00 49 1014.4
20260505012001 69 138 0.0 1.7 0.00 0.00 0.00 47 1014.4
20260505011456 69 164 0.0 2.6 0.00 0.00 0.00 46 1014.3
20260505011205 70 170 0.9 1.7 0.00 0.00 0.00 44 1012.7
20260505010954 70 139 0.0 1.7 0.00 0.00 0.00 45 1014.1
20260505010705 70 150 0.9 2.6 0.00 0.00 0.00 44 1012.7
20260505010449 70 136 1.7 1.7 0.00 0.00 0.00 45 1014.3
20260505005946 70 114 0.9 0.9 0.00 0.00 0.00 45 1014.1
20260505005705 71 151 0.9 2.6 0.00 0.00 0.00 43 1012.6
20260505005442 70 129 0.0 1.7 0.00 0.00 0.00 44 1013.9
20260505004940 70 129 0.0 1.7 0.00 0.00 0.00 44 1013.8
20260505004437 70 132 0.0 1.7 0.00 0.00 0.00 44 1013.8
20260505003934 70 155 0.9 0.9 0.00 0.00 0.00 44 1013.8
20260505003431 71 169 0.9 1.7 0.00 0.00 0.00 44 1013.6
20260505003205 72 161 0.9 1.7 0.00 0.00 0.00 42 1012.2
20260505002927 71 142 0.0 1.7 0.00 0.00 0.00 45 1013.7
20260505002423 71 129 0.0 0.9 0.00 0.00 0.00 44 1013.6
20260505002206 73 186 0.9 1.7 0.00 0.00 0.00 40 1012.2
20260505001922 72 150 0.0 1.7 0.00 0.00 0.00 43 1013.6
20260505001705 73 148 0.9 1.7 0.00 0.00 0.00 39 1012.2
20260505001419 72 147 0.0 2.6 0.00 0.00 0.00 42 1013.6
20260505000916 72 154 0.0 1.7 0.00 0.00 0.00 41 1013.6
20260505000414 73 150 0.0 1.7 0.00 0.00 0.00 41 1013.6
20260505000205 74 165 0.0 1.7 0.00 0.00 0.00 38 1012.2
20260504235910 73 114 0.9 0.9 0.00 0.00 0.00 41 1013.6
20260504235408 73 160 0.0 0.9 0.00 0.00 0.00 40 1013.5
20260504234904 74 170 0.0 1.7 0.00 0.00 0.00 40 1013.6
20260504234402 74 256 0.0 1.7 0.00 0.00 0.00 39 1013.3
20260504234206 75 64 0.9 2.6 0.00 0.00 0.00 37 1011.9
20260504233858 74 205 0.0 1.7 0.00 0.00 0.00 39 1013.3
20260504233354 75 135 0.0 1.7 0.00 0.00 0.00 38 1013.0
20260504232850 75 135 0.0 1.7 0.00 0.00 0.00 38 1013.0
20260504232348 75 230 0.0 2.6 0.00 0.00 0.00 37 1013.3
20260504231844 75 172 0.0 1.7 0.00 0.00 0.00 37 1013.0
20260504231705 77 150 0.9 4.3 0.00 0.00 0.00 35 1011.7
20260504231341 76 176 0.0 0.9 0.00 0.00 0.00 37 1012.8
20260504230837 76 92 0.9 2.6 0.00 0.00 0.00 37 1012.9
20260504230705 77 178 0.0 2.6 0.00 0.00 0.00 35 1011.7
20260504230335 76 322 0.0 1.7 0.00 0.00 0.00 38 1013.2
20260504225833 76 269 1.7 2.6 0.00 0.00 0.00 36 1012.9
20260504225329 77 154 2.6 3.5 0.00 0.00 0.00 36 1012.7
20260504224827 77 155 0.0 7.8 0.00 0.00 0.00 35 1012.8
20260504224324 77 183 1.7 2.6 0.00 0.00 0.00 34 1012.7
20260504223821 77 306 0.9 4.3 0.00 0.00 0.00 34 1012.8
20260504223705 79 29 0.9 4.3 0.00 0.00 0.00 31 1011.7
20260504223316 77 156 0.0 1.7 0.00 0.00 0.00 34 1012.9
20260504223205 79 100 0.9 4.3 0.00 0.00 0.00 31 1011.6
20260504222813 78 299 0.0 1.7 0.00 0.00 0.00 32 1012.9
20260504222705 79 170 0.9 2.6 0.00 0.00 0.00 32 1011.6
20260504222310 78 257 0.9 5.2 0.00 0.00 0.00 33 1012.7
20260504222205 80 6 1.7 5.2 0.00 0.00 0.00 30 1011.6
20260504221808 78 113 0.0 2.6 0.00 0.00 0.00 33 1012.9
20260504221304 78 230 0.0 0.9 0.00 0.00 0.00 33 1012.9
20260504220801 78 198 0.0 2.6 0.00 0.00 0.00 32 1012.8
20260504220258 78 141 0.0 1.7 0.00 0.00 0.00 32 1012.8
20260504215756 78 261 0.9 2.6 0.00 0.00 0.00 33 1012.9
20260504215252 78 157 1.7 3.5 0.00 0.00 0.00 31 1013.0
20260504215205 83 29 0.9 4.3 0.00 0.00 0.00 29 1011.5
20260504214748 78 327 0.0 1.7 0.00 0.00 0.00 33 1012.9
20260504214704 83 46 0.9 2.6 0.00 0.00 0.00 26 1011.6
20260504214244 78 269 0.0 2.6 0.00 0.00 0.00 31 1012.9
20260504214205 83 353 0.9 5.2 0.00 0.00 0.00 27 1011.6
20260504213741 78 312 0.0 1.7 0.00 0.00 0.00 33 1012.9
20260504213237 78 304 0.0 3.5 0.00 0.00 0.00 33 1012.9
20260504212735 79 334 1.7 2.6 0.00 0.00 0.00 34 1012.8
20260504212705 84 16 1.7 5.2 0.00 0.00 0.00 28 1011.6
20260504212231 79 250 1.7 3.5 0.00 0.00 0.00 31 1013.0
20260504212205 84 73 0.9 2.6 0.00 0.00 0.00 26 1011.6
20260504211729 79 279 2.6 2.6 0.00 0.00 0.00 30 1013.1
20260504211705 84 112 0.9 1.7 0.00 0.00 0.00 26 1011.7
20260504211225 79 306 1.7 2.6 0.00 0.00 0.00 31 1012.9
20260504211205 84 37 0.9 2.6 0.00 0.00 0.00 28 1011.6
20260504210723 79 284 0.9 6.1 0.00 0.00 0.00 30 1013.0
20260504210220 80 320 0.0 1.7 0.00 0.00 0.00 30 1013.0
20260504205717 80 177 0.9 3.5 0.00 0.00 0.00 29 1013.0
20260504205704 84 109 0.9 2.6 0.00 0.00 0.00 25 1011.7
20260504205214 79 284 0.0 2.6 0.00 0.00 0.00 29 1012.8
20260504204712 79 139 0.0 4.3 0.00 0.00 0.00 28 1013.2
20260504204705 84 68 0.9 1.7 0.00 0.00 0.00 28 1011.8
20260504204210 80 147 2.6 3.5 0.00 0.00 0.00 29 1013.1
20260504203709 80 89 0.0 5.2 0.00 0.00 0.00 28 1013.3
20260504203207 81 156 0.9 2.6 0.00 0.00 0.00 29 1013.1
20260504202706 80 185 1.7 6.1 0.00 0.00 0.00 27 1013.1
20260504202205 83 31 0.9 2.6 0.00 0.00 0.00 27 1011.9
20260504201701 82 140 1.7 4.3 0.00 0.00 0.00 28 1013.6
20260504201158 80 279 1.7 2.6 0.00 0.00 0.00 28 1013.6
20260504200705 83 67 0.9 2.6 0.00 0.00 0.00 27 1012.2
20260504200655 81 298 2.6 5.2 0.00 0.00 0.00 29 1013.6
20260504200152 81 145 0.0 4.3 0.00 0.00 0.00 28 1013.8
20260504195648 81 312 1.7 1.7 0.00 0.00 0.00 30 1013.5
20260504195144 82 235 1.7 3.5 0.00 0.00 0.00 28 1013.7
20260504194705 83 145 0.9 4.3 0.00 0.00 0.00 27 1012.2
20260504194641 82 288 2.6 3.5 0.00 0.00 0.00 31 1013.7
20260504194205 83 59 0.9 4.3 0.00 0.00 0.00 28 1012.2
20260504194137 81 180 0.0 3.5 0.00 0.00 0.00 29 1013.6
20260504193633 80 158 1.7 4.3 0.00 0.00 0.00 30 1013.6
20260504193131 82 182 0.9 3.5 0.00 0.00 0.00 29 1013.6
20260504192705 83 134 0.9 2.6 0.00 0.00 0.00 27 1012.3
20260504192629 81 269 0.0 5.2 0.00 0.00 0.00 30 1013.6
20260504192205 83 142 0.9 2.6 0.00 0.00 0.00 27 1012.3
20260504192127 79 300 1.7 3.5 0.00 0.00 0.00 31 1013.7
20260504191625 81 160 3.5 4.3 0.00 0.00 0.00 28 1013.9
20260504191205 83 78 1.7 6.1 0.00 0.00 0.00 27 1012.6
20260504191121 79 89 0.0 1.7 0.00 0.00 0.00 31 1013.9
20260504190617 80 175 1.7 4.3 0.00 0.00 0.00 30 1013.9
20260504190114 80 185 2.6 3.5 0.00 0.00 0.00 31 1014.0
20260504185610 79 283 0.9 3.5 0.00 0.00 0.00 31 1014.1
20260504185204 83 44 0.9 4.3 0.00 0.00 0.00 28 1012.8
20260504185107 78 312 2.6 4.3 0.00 0.00 0.00 32 1014.3
20260504184705 83 223 0.9 5.2 0.00 0.00 0.00 28 1012.8
20260504184603 80 269 0.0 3.5 0.00 0.00 0.00 33 1014.3
20260504184205 82 1 1.7 4.3 0.00 0.00 0.00 30 1012.8
20260504184058 80 230 0.0 4.3 0.00 0.00 0.00 30 1014.3
20260504183555 78 295 0.0 4.3 0.00 0.00 0.00 32 1014.3
20260504183205 82 206 0.9 1.7 0.00 0.00 0.00 30 1012.8
20260504183053 78 167 0.9 7.0 0.00 0.00 0.00 31 1014.3
20260504182705 81 49 0.9 2.6 0.00 0.00 0.00 32 1012.9
20260504182550 79 316 1.7 2.6 0.00 0.00 0.00 30 1014.3
20260504182205 81 30 0.9 2.6 0.00 0.00 0.00 31 1012.9
20260504182048 78 257 2.6 6.1 0.00 0.00 0.00 32 1014.3
20260504181545 78 275 1.7 2.6 0.00 0.00 0.00 31 1014.4
20260504181043 76 302 0.0 3.5 0.00 0.00 0.00 36 1014.7
20260504180705 80 54 1.7 2.6 0.00 0.00 0.00 28 1013.0
20260504180541 77 302 2.6 6.1 0.00 0.00 0.00 34 1014.5
20260504180205 80 173 1.7 4.3 0.00 0.00 0.00 29 1013.1
20260504180040 77 275 1.7 3.5 0.00 0.00 0.00 35 1014.4
20260504175705 80 55 1.7 6.1 0.00 0.00 0.00 30 1013.1
20260504175537 78 306 1.7 3.5 0.00 0.00 0.00 33 1014.5
20260504175034 77 279 0.0 2.6 0.00 0.00 0.00 34 1014.5
20260504174532 77 87 0.0 3.5 0.00 0.00 0.00 34 1014.6
20260504174205 79 37 0.9 4.3 0.00 0.00 0.00 36 1013.3
20260504174028 75 279 1.7 4.3 0.00 0.00 0.00 35 1014.9
20260504173525 75 359 1.7 5.2 0.00 0.00 0.00 36 1014.9
20260504173204 79 26 1.7 4.3 0.00 0.00 0.00 31 1013.4
20260504173022 75 211 1.7 4.3 0.00 0.00 0.00 35 1015.0
20260504172518 75 318 2.6 4.3 0.00 0.00 0.00 39 1015.1
20260504172205 78 81 1.7 5.2 0.00 0.00 0.00 33 1013.8
20260504172015 76 318 0.9 2.6 0.00 0.00 0.00 38 1015.0
20260504171512 75 272 2.6 4.3 0.00 0.00 0.00 36 1015.3
20260504171009 75 322 1.7 4.3 0.00 0.00 0.00 41 1015.3
20260504170705 78 80 0.9 2.6 0.00 0.00 0.00 34 1013.9
20260504170505 74 269 0.0 2.6 0.00 0.00 0.00 40 1015.1
20260504170205 78 17 0.9 6.1 0.00 0.00 0.00 35 1013.9
20260504160425 72 253 3.5 5.2 0.00 0.00 0.00 44 1015.9
20260504160205 75 316 1.7 4.3 0.00 0.00 0.00 41 1014.6
20260504150849 66 343 1.7 2.6 0.00 0.00 0.00 57 1016.2
20260504150705 71 92 0.9 4.3 0.00 0.00 0.00 48 1014.9
20260504150345 67 341 1.7 1.7 0.00 0.00 0.00 58 1016.3
20260504141315 63 195 0.0 2.6 0.00 0.00 0.00 68 1016.6
20260504140812 62 62 0.0 4.3 0.00 0.00 0.00 67 1016.3
20260504140704 65 351 0.9 2.6 0.00 0.00 0.00 63 1015.0
20260504140308 62 322 1.7 2.6 0.00 0.00 0.00 66 1016.6
20260504140205 64 137 0.0 2.6 0.00 0.00 0.00 66 1015.0
20260504130737 57 355 0.0 3.5 0.00 0.00 0.00 78 1016.6
20260504130704 57 342 0.9 1.7 0.00 0.00 0.00 80 1015.3
20260504130232 57 122 0.0 1.7 0.00 0.00 0.00 80 1016.7
20260504120204 49 173 0.0 1.7 0.00 0.00 0.00 90 1015.4
20260504120156 49 116 0.0 1.7 0.00 0.00 0.00 96 1016.7